Regional Weather Roundup
Issued by NWS

Home | Current Version | Previous Version | Text Only | Print | Product List | Glossary Off
Versions: 1 2 3 4 5 6 7 8 9 10 11 12 13 14 15 16 17 18 19 20 21 22 23 24 25 26 27 28 29 30 31 32 33 34 35 36 37 38 39 40 41 42 43 44 45 46 47 48 49 50

000
ASUS45 KBOU 210507
RWRCO

WEATHER ROUNDUP FOR COLORADO
NATIONAL WEATHER SERVICE DENVER/BOULDER CO
1100 PM MDT MON OCT 20 2014

NOTE: "FAIR" INDICATES FEW OR NO CLOUDS BELOW 12000 FEET WITH NO
SIGNIFICANT WEATHER AND/OR OBSTRUCTIONS TO VISIBILITY.

COZ001>005-013-030-031-210600-
...NORTHWEST COLORADO...

CITY           SKY/WX    TMP DP  RH WIND       PRES   REMARKS
CRAIG          CLEAR     39  34  82 CALM      30.13S
HAYDEN         CLEAR     46  34  61 E10       30.14S
MEEKER         PTCLDY    43  36  76 NE5       30.14S
MOUNT WERNER   NOT AVBL
STEAMBOAT SPGS CLEAR     47  35  62 CALM      30.16S
WALDEN         CLEAR     34  30  86 SE6       30.21S WCI  29
$$

COZ006>008-011-210600-
...WEST CENTRAL VALLEYS...

CITY           SKY/WX    TMP DP  RH WIND       PRES   REMARKS
GRAND JUNCTION PTCLDY    56  37  49 E9        30.05S
MONTROSE       MOCLDY    54  39  57 SE9       30.14S
EAGLE          CLOUDY    52  39  62 CALM      30.18F
RIFLE          MOCLDY    49  38  65 CALM      30.10F
DELTA          PTCLDY    58  42  54 CALM      30.10S
NUCLA          MOCLDY    55  37  50 SE7       30.17S
$$

COZ017>023-064>068-210600-
...SOUTHWEST COLORADO...

CITY           SKY/WX    TMP DP  RH WIND       PRES   REMARKS
DURANGO        CLOUDY    50  42  74 N5        30.21R
CORTEZ         CLEAR     50  40  68 N6        30.14S
PAGOSA SPRINGS MOCLDY    46  40  80 CALM      30.27S
TELLURIDE      PTCLDY    45  35  68 CALM      30.32S
WOLF CREEK PAS MOCLDY    34  30  86 SW9       30.45S WCI  26
$$

COZ009-010-012-014-032>034-037-058>063-210600-
...CENTRAL COLORADO...

CITY           SKY/WX    TMP DP  RH WIND       PRES   REMARKS
ASPEN          PTCLDY    45  33  63 S9        30.22F
BUENA VISTA    PTCLDY    41  33  74 NW5       30.26S
COPPER MTN     PTCLDY    41  28  60 S21       30.44F
BERTHOUD PASS  FAIR      32  30  93 MISG      30.47F
COTTONWOOD PAS PTCLDY    46  32  57 CALM      30.35S
GUNNISON       CLEAR     43  30  61 N5        30.27S
KREMMLING      CLOUDY    43  32  65 CALM        N/A
LEADVILLE      PTCLDY    38  28  67 NE3       30.33F
SALIDA         PTCLDY    49  35  57 W7        30.32S
SUNLIGHT       PTCLDY    41  32  70 CALM      30.38F
WILKERSON PASS NOT AVBL
$$

COZ069>075-210600-
...SAN LUIS VALLEY/SANGRE DE CRISTO MOUNTAINS...

CITY           SKY/WX    TMP DP  RH WIND       PRES   REMARKS
ALAMOSA        MOCLDY    44  36  73 SW7       30.25S
LA VETA PASS   CLEAR     43  30  61 S6        30.37F
SAGUACHE       PTCLDY    45  34  65 NW5       30.27S
$$

COZ035-036-038>040-210600-
...NORTHERN COLORADO FRONT RANGE...

CITY           SKY/WX    TMP DP  RH WIND       PRES   REMARKS
DENVER INTL AP PTCLDY    59  38  45 S22       30.07F
DMNS CITY PARK   N/A     61  35  38 S14       30.05F
AURORA         PTCLDY    58  39  49 S22G28    30.09F
FRONT RANGE AP NOT AVBL
ERIE MUNI ARPT PTCLDY    51  39  64 S3        30.04F
BOULDER MUN AP PTCLDY    55  37  50 N3        30.04F
CENTENNIAL     PTCLDY    56  38  50 S10       30.11F
BROOMFIELD     NOT AVBL
FORT COLLINS   CLEAR     52  39  62 NW6       30.06S
LONGMONT       CLEAR     51  42  70 CALM      30.06S
$$

COZ041-046-047-076>085-087-088-210600-
...PIKES PEAK/PALMER DIVIDE AND SOUTHERN FOOTHILLS...

CITY           SKY/WX    TMP DP  RH WIND       PRES   REMARKS
COLO. SPRINGS  CLEAR     51  39  63 E6        30.20F
A. F. ACADEMY  CLEAR     51  37  58 VRB3      30.20S
ELLICOTT       CLEAR     50  41  71 S9        30.18S
FALCON         CLEAR     47  38  72 S6        30.23F
FORT CARSON    CLEAR     51  38  60 E6        30.17F
LIMON          CLEAR     48  41  76 S9        30.16S
MONUMENT HILL  CLEAR     50  37  62 S21G29    30.18F
TRINIDAD       CLEAR     51  40  65 NW5       30.17F
$$

COZ042>045-048>051-090-091-210600-
...NORTHEAST COLORADO...

CITY           SKY/WX    TMP DP  RH WIND       PRES   REMARKS
GREELEY ARPT   CLEAR     48  34  57 CALM      30.04F
AKRON          CLEAR     56  42  59 S15       30.08F
BURLINGTON     CLEAR     52  39  61 S12       30.12S
WRAY           CLEAR     55  39  56 SW3       30.09S
STERLING       CLEAR     54  43  66 SW3       30.04F
HOLYOKE        CLEAR     54  41  62 S7        30.08S
FORT MORGAN    CLEAR     52  39  60 SE6       30.07S
$$

COZ086-089-092>099-210600-
...SOUTHEAST COLORADO...

CITY           SKY/WX    TMP DP  RH WIND       PRES   REMARKS
PUEBLO         CLEAR     55  42  61 E10       30.10F
LA JUNTA       CLEAR     52  44  74 E7        30.11F
LAMAR          CLEAR     57  49  74 S10       30.09F
SPRINGFIELD      N/A     51  49  92 S8        30.14F
$$


USA.gov is the U.S. government's official web portal to all federal, state and local government web resources and services.